This is the latest recevied weather packets stored in our database for station/object KC5AV. If no packets are shown the sender has not sent any weather packets the latest 10 day(s).
| Time | Temp. | Humidity | Pressure | Rain* | Wind** | Luminosity | Snow |
|---|---|---|---|---|---|---|---|
| 1777669838 | 14.44° C | 82% | 1016.4 hPa | 0 mm | - | 82 W/m² | - |
| 1777669533 | 14.44° C | 82% | 1016.4 hPa | 0 mm | - | 81 W/m² | - |
| 1777669230 | 15° C | 82% | 1016.4 hPa | 0 mm | - | 87 W/m² | - |
| 1777668927 | 15° C | 81% | 1016.3 hPa | 0 mm | - | 100 W/m² | - |
| 1777668625 | 15° C | 82% | 1016.3 hPa | 0 mm | - | 105 W/m² | - |
| 1777668321 | 15° C | 81% | 1015.8 hPa | 0 mm | - | 139 W/m² | - |
| 1777668017 | 15° C | 78% | 1015.8 hPa | 0 mm | - | 113 W/m² | - |
| 1777667714 | 15.56° C | 81% | 1015.1 hPa | 0 mm | - | 176 W/m² | - |
| 1777667412 | 15.56° C | 79% | 1015 hPa | 0 mm | - | 214 W/m² | - |
| 1777667108 | 15.56° C | 81% | 1014.4 hPa | 0 mm | - | 353 W/m² | - |
| 1777666804 | 15.56° C | 82% | 1014.2 hPa | 0 mm | - | 332 W/m² | - |
| 1777666502 | 15.56° C | 85% | 1014.3 hPa | 0 mm | - | 381 W/m² | - |
| 1777666198 | 15.56° C | 84% | 1014.2 hPa | 0 mm | - | 279 W/m² | - |
| 1777665895 | 15.56° C | 84% | 1014.1 hPa | 0 mm | - | 294 W/m² | - |
| 1777665593 | 16.67° C | 83% | 1014.2 hPa | 0 mm | - | 306 W/m² | - |
| 1777665290 | 15.56° C | 85% | 1014.2 hPa | 0 mm | - | 910 W/m² | - |
| 1777664985 | 15.56° C | 89% | 1014.1 hPa | 0 mm | - | 609 W/m² | - |
| 1777664681 | 15.56° C | 90% | 1014.3 hPa | 0 mm | - | 547 W/m² | - |
| 1777664377 | 15° C | 91% | 1014.6 hPa | 0 mm | - | 511 W/m² | - |
| 1777664076 | 14.44° C | 93% | 1014.4 hPa | 0 mm | - | 545 W/m² | - |
| 1777663773 | 13.89° C | 92% | 1014.7 hPa | 0 mm | - | 307 W/m² | - |
| 1777663470 | 13.89° C | 93% | 1014.5 hPa | 0 mm | - | 241 W/m² | - |
| 1777663168 | 13.89° C | 94% | 1014.7 hPa | 0 mm | - | 260 W/m² | - |
| 1777662864 | 13.33° C | 94% | 1015.1 hPa | 0 mm | - | 236 W/m² | - |
| 1777662562 | 13.33° C | 94% | 1015.6 hPa | 0 mm | - | 169 W/m² | - |
* Rain latest hour (hover to see other rain measurements)
** Current wind speed in m/s (hover to see current wind gust speed)